STARLINK-34247, 65083

Orbit data source: Space-Track

STARLINK-34247, 65083 is a payload satellite owned by SpaceX/Seattle (US) in LEO that was launched on Mon, 04 Aug 2025 UTC via an FALCON 9 launch vehicle from the Air Force Eastern Test Range (AFETR). Payload-class satellites include a variety of spacecraft equipped with specific instruments for various scientific and technological missions. These include communications satellites like Starlink; space stations such as the ISS; scientific satellites like the Hubble; Earth observation satellites from companies like Planet Labs, Umbra, and HawkEye 360; GPS; miniature CubeSats for education and research; and military/defense satellites.

Loading next visibility...
Identifier
65083, 2025-167F
Orbit
LEO
Country
Flag of USUS
Related business
Manufacturer
SpaceX/Seattle
Mission
Operational Commercial Communications
Bus & Motor
STARLINK V2MO, Unknown motor
Mass
575 kg wet, ~530 kg dry
Launch date (UTC)
2025-08-04 (9 months ago)
Launch vehicle
FALCON 9
Launch site
Air Force Eastern Test Range (AFETR)
Object type
Payload
Rocket body
Debris
Shape & HBR
Box + 2 Pan, 17.7 m
Radar Cross Section
36.964 m², Large (>1 m²)

Expand to show TLE details & history
Last TLE update: 10 hours ago

TLE from 10 hours ago
0 STARLINK-34247
1 65083U 25167F   26127.26739085  .00008749  00000-0  30722-3 0  9996
2 65083  53.1585 112.1171 0001233  89.0472 271.0670 15.30193413 42485
Epoch: 2026-05-07T06:25Z
TLE epoch observation values (Epoch: 2026-05-07T06:25:02.569Z)
Latitude
-0.00002°
Longitude
150.7404°
Altitude
476.119 km
Speed
7.629 km/s
True Right ascension
07h 28m 28s
True Declination
0° 00' 00"
Sunlit
Object was in daylight at epoch
Visualization orbit readout
Latitude
Unknown
Longitude
Unknown
Altitude
Unknown
Speed
Unknown
Apparent Right ascension
Unknown
Apparent Declination
Unknown
Sunlit
N/A
Visualization observer readout
Local Sidereal Time
00:46:21
Azimuth
Unknown
Elevation
Unknown
Doppler factor
Unknown
Orbital elements
Apogee altitude
476.336 km
Perigee altitude
474.646 km
Semi-major axis
6,853.628 km
Eccentricity
0.00012
Inclination
53.1585°
RAAN
112.1171°
Arg. of periapsis
89.0472°
True anomaly
271.05287°
Mean anomaly
271.067°
Eccentric anomaly
271.05994°
Mean motion
3.82527 °/min
Orbital period
94.11 mins
BSTAR
0.00030722
Loading maneuver chart data...
Computing Atmospheric mass density...
Loading historical data...
Loading historical data...
Loading historical data...
Loading historical data...
Loading historical data...
Loading historical data...
Loading historical data...

Documentation

Showing up to 5 results
|